[[{"header":{"parameterUnit":"m.s-1","parameterCategory":1,"la1":30.2991,"la2":30.254,"lo1":-89.0895,"lo2":-89.0444,"dy":0.0017,"dx":0.0017,"nx":28,"ny":28,"refTime":"2023-03-22T21:00:00:Z","depth":0,"parameterNumber":2,"parameterNumberName":"U-component_of_WINDS"},"data":[0,0,0,0,0,0,0,0,0,0,0,0,0,0,0,0,0,0,0,0,0,0,0,0,0,0,0,0,0,0,0,0,0,0,0,0,0,0,0,0,0,0,0,0,0,0,0,0,0,0,0,0,0,0,0,0,0,0,-2.4742,-2.4742,0,-2.4663,-2.4662,-2.4661,-2.4583,-2.4582,-2.4581,-2.458,-2.4499,-2.4498,-2.4497,0,0,0,0,0,0,0,0,0,0,0,0,0,-2.483,-2.4829,-2.4743,-2.4742,-2.4741,-2.4663,-2.4662,-2.466,-2.4584,-2.4582,-2.4581,-2.458,-2.45,-2.4498,-2.4497,0,0,0,0,0,0,0,0,0,0,0,0,0,-2.4775,-2.4829,-2.4743,-2.4693,-2.4688,-2.4663,-2.4662,-2.466,-2.4584,-2.4582,-2.4581,-2.4579,-2.45,-2.4498,-2.4496,-2.4515,0,0,-2.4491,-2.449,0,0,0,0,0,0,0,0,-2.4779,-2.4772,-2.4701,-2.4696,-2.469,-2.4631,-2.4663,-2.4611,-2.4584,-2.4623,-2.458,-2.4579,-2.4544,-2.4539,-2.4527,-2.4511,-2.4508,-2.4491,-2.4489,-2.4489,-2.4488,0,0,0,0,0,0,0,-2.4783,-2.4775,-2.4711,-2.47,-2.4694,-2.4675,-2.4665,-2.4653,-2.4593,-2.462,-2.4614,-2.4605,-2.4541,-2.4529,-2.4525,-2.4506,-2.4491,-2.4489,-2.4488,-2.4487,-2.4502,-2.4503,0,0,0,0,0,0,-2.4794,-2.4779,-2.4713,-2.4708,-2.4732,-2.4675,-2.4664,-2.4652,-2.4593,-2.4583,-2.4607,-2.4602,-2.4533,-2.4527,-2.4521,-2.4538,-2.4489,-2.4487,-2.4486,-2.45,-2.4502,-2.4504,0,0,0,0,0,0,-2.4796,-2.4789,-2.4717,-2.4742,-2.4732,-2.4675,-2.4662,-2.4651,-2.4639,-2.4583,-2.4572,-2.4605,-2.4532,-2.4524,-2.4517,-2.4535,-2.4486,-2.4484,-2.4499,-2.4501,-2.4503,-2.4573,0,0,0,0,0,0,-2.4799,-2.479,-2.4796,-2.4743,-2.473,-2.4713,-2.4663,-2.4651,-2.4636,-2.4629,-2.4579,-2.4569,-2.453,-2.452,-2.4515,-2.4531,-2.4483,-2.4497,-2.45,-2.4502,-2.4569,-2.4578,-2.4585,0,0,0,0,0,-2.4802,-2.4819,-2.4796,-2.4789,-2.4737,-2.4714,-2.4707,-2.4661,-2.4637,-2.4643,-2.4608,-2.4571,-2.4534,-2.452,-2.4514,-2.453,-2.4495,-2.4499,-2.4502,-2.4566,-2.4576,-2.4585,0,0,0,0,0,0,-2.4875,-2.4811,-2.4785,-2.4785,-2.4756,-2.4701,-2.4707,-2.4674,-2.4651,-2.4645,-2.459,-2.4579,-2.4578,-2.4554,-2.4539,-2.4545,-2.451,-2.4512,-2.456,-2.457,-2.4578,-2.4583,-2.4481,0,0,0,0,0,-2.4891,-2.4878,-2.4823,-2.4828,-2.4815,-2.4764,-2.4752,-2.472,-2.4687,-2.4674,-2.4638,-2.4608,-2.459,-2.4579,-2.4559,-2.4567,-2.4554,-2.4574,-2.4582,-2.4589,-2.4591,-2.4593,-2.4601,-2.4515,-2.4515,-2.4515,0,0,-2.4924,-2.4888,-2.4882,-2.4842,-2.4815,-2.4803,-2.4754,-2.4743,-2.4734,-2.4673,-2.4663,-2.4637,-2.46,-2.46,-2.4598,-2.4579,-2.4613,-2.4594,-2.4599,-2.4597,-2.4597,-2.4606,-2.4613,-2.4517,-2.4517,-2.4517,0,0,-2.4977,-2.4949,-2.495,-2.4924,-2.4885,-2.4851,-2.4852,-2.4803,-2.4782,-2.4772,-2.4727,-2.4715,-2.4685,-2.466,-2.4644,-2.4691,-2.4656,-2.4686,-2.4727,-2.473,-2.4736,-2.4742,-2.4758,-2.4764,-2.4689,-2.4689,-2.4689,0,-2.5023,-2.5002,-2.4955,-2.4947,-2.493,-2.4876,-2.4876,-2.4854,-2.4811,-2.4801,-2.4781,-2.4742,-2.4713,-2.4707,-2.4719,-2.4708,-2.4706,-2.469,-2.4739,-2.4745,-2.4749,-2.4763,-2.477,-2.4693,-2.4693,-2.4692,-2.4692,0,-2.506,-2.5047,-2.5053,-2.5012,-2.4997,-2.4993,-2.4945,-2.4936,-2.4906,-2.4875,-2.4866,-2.483,-2.4802,-2.4799,-2.4769,-2.4788,-2.4778,-2.475,-2.4713,-2.4762,-2.4774,-2.478,-2.4698,-2.4697,-2.4696,-2.4695,0,0,-2.5154,-2.5088,-2.5091,-2.5072,-2.5025,-2.5014,-2.501,-2.4982,-2.4975,-2.4948,-2.4942,-2.4919,-2.4892,-2.4874,-2.4841,-2.4844,-2.4883,-2.4815,-2.4813,-2.4828,-2.4901,-2.4921,-2.4929,-2.4861,-2.4862,-2.4862,-2.4904,0,-2.5198,-2.5184,-2.5142,-2.5142,-2.5129,-2.5078,-2.5074,-2.5045,-2.5017,-2.5003,-2.4971,-2.4955,-2.4922,-2.4911,-2.4912,-2.4878,-2.4896,-2.4875,-2.4854,-2.4854,-2.4862,-2.4935,-2.4956,-2.4997,-2.4909,-2.491,-2.491,0,-2.5247,-2.5222,-2.5221,-2.5175,-2.5169,-2.5165,-2.5137,-2.5124,-2.5092,-2.5071,-2.5051,-2.5016,-2.5008,-2.4976,-2.4965,-2.4951,-2.4941,-2.4924,-2.4924,-2.4918,-2.4883,-2.493,-2.5009,-2.5015,-2.4918,-2.4917,-2.4916,0,-2.5314,-2.5281,-2.5275,-2.5261,-2.5209,-2.5207,-2.5186,-2.5151,-2.5138,-2.5114,-2.5105,-2.5081,-2.5068,-2.505,-2.5009,-2.499,-2.5003,-2.4968,-2.4985,-2.4986,-2.4987,-2.4987,-2.5064,-2.4985,-2.4985,-2.4985,-2.4985,0,-2.5366,-2.5366,-2.5305,-2.5301,-2.5301,-2.5254,-2.5255,-2.5228,-2.5199,-2.5189,-2.5145,-2.5138,-2.5085,-2.5072,-2.504,-2.5036,-2.5031,-2.5013,-2.5004,-2.5016,-2.5018,-2.5006,-2.5001,-2.4986,-2.4986,-2.4986,-2.4985,0,-2.5439,-2.5398,-2.5389,-2.534,-2.5328,-2.533,-2.5289,-2.5284,-2.5254,-2.5243,-2.5238,-2.519,-2.5173,-2.5131,-2.5102,-2.5081,-2.5084,-2.5069,-2.5095,-2.5089,-2.5108,-2.5106,-2.5178,-2.5185,-2.5104,-2.5104,-2.5105,0,-2.5474,-2.5473,-2.5425,-2.5415,-2.5395,-2.5381,-2.5367,-2.5322,-2.5309,-2.5273,-2.5272,-2.5252,-2.5232,-2.5206,-2.5169,-2.5148,-2.5131,-2.5158,-2.5127,-2.5139,-2.5129,-2.5129,-2.5128,-2.5164,-2.5165,-2.5166,-2.5166,0,-2.5539,-2.5519,-2.5501,-2.5476,-2.5461,-2.5439,-2.5415,-2.541,-2.5359,-2.5347,-2.5329,-2.5314,-2.5285,-2.5264,-2.5237,-2.5215,-2.5182,-2.5177,-2.5179,-2.519,-2.5204,-2.5195,-2.5111,-2.5175,-2.5174,-2.5173,-2.5173,-2.5172,-2.5593,-2.559,-2.5556,-2.5537,-2.5514,-2.5493,-2.5486,-2.5455,-2.5439,-2.5411,-2.5386,-2.537,-2.5339,-2.5299,-2.5279,-2.5267,-2.525,-2.5254,-2.5254,-2.5255,-2.526,-2.5208,-2.5262,-2.5262,-2.5261,-2.5261,-2.5261,0,-2.5655,-2.5631,-2.5614,-2.5582,-2.5567,-2.5539,-2.5511,-2.5501,-2.5487,-2.546,-2.5442,-2.5421,-2.5402,-2.5365,-2.5342,-2.5339,-2.5323,-2.5334,-2.5333,-2.5328,-2.5277,-2.5276,-2.5347,-2.5347,-2.5347,-2.5347,-2.5347,-2.5347,-2.5685,-2.5678,-2.5655,-2.5636,-2.5612,-2.5596,-2.5582,-2.5563,-2.5541,-2.552,-2.5503,-2.5479,-2.5449,-2.5424,-2.5405,-2.5395,-2.5387,-2.5403,-2.5388,-2.534,-2.5332,-2.5324,-2.5323,-2.5403,-2.5403,-2.544,-2.544,-2.544]},{"header":{"parameterUnit":"m.s-1","parameterCategory":1,"la1":30.2991,"la2":30.254,"lo1":-89.0895,"lo2":-89.0444,"dy":0.0017,"dx":0.0017,"nx":28,"ny":28,"refTime":"2023-03-22T21:00:00:Z","depth":0,"parameterNumber":3,"parameterNumberName":"V-component_of_WINDS"},"data":[0,0,0,0,0,0,0,0,0,0,0,0,0,0,0,0,0,0,0,0,0,0,0,0,0,0,0,0,0,0,0,0,0,0,0,0,0,0,0,0,0,0,0,0,0,0,0,0,0,0,0,0,0,0,0,0,0,0,2.8053,2.8052,0,2.7948,2.7946,2.7945,2.7886,2.7886,2.7886,2.7886,2.7773,2.777,2.7767,0,0,0,0,0,0,0,0,0,0,0,0,0,2.8201,2.8198,2.8053,2.8052,2.8051,2.7948,2.7946,2.7945,2.7886,2.7886,2.7886,2.7886,2.7773,2.777,2.7767,0,0,0,0,0,0,0,0,0,0,0,0,0,2.812,2.8197,2.8054,2.8009,2.8004,2.7948,2.7946,2.7944,2.7886,2.7886,2.7886,2.7886,2.7775,2.777,2.7766,2.7744,0,0,2.7753,2.7751,0,0,0,0,0,0,0,0,2.8125,2.8114,2.8017,2.8012,2.8006,2.793,2.7957,2.7877,2.7886,2.7931,2.7886,2.7886,2.7825,2.7816,2.7797,2.7739,2.7734,2.7753,2.775,2.7748,2.7747,0,0,0,0,0,0,0,2.813,2.8119,2.8011,2.8016,2.8009,2.7993,2.7982,2.7941,2.788,2.7927,2.7923,2.7911,2.7822,2.7801,2.7794,2.7732,2.7753,2.7749,2.7746,2.7745,2.7653,2.7653,0,0,0,0,0,0,2.8143,2.8124,2.8015,2.8008,2.8066,2.7991,2.7978,2.7955,2.7881,2.7869,2.7911,2.7909,2.7809,2.7799,2.779,2.776,2.7748,2.7744,2.7742,2.7653,2.7653,2.7653,0,0,0,0,0,0,2.8147,2.8134,2.8019,2.8065,2.8049,2.7989,2.7963,2.7953,2.7932,2.7869,2.7857,2.7902,2.7808,2.7796,2.7757,2.7755,2.7742,2.7738,2.7652,2.7653,2.7653,2.7701,0,0,0,0,0,0,2.8151,2.8136,2.8128,2.8065,2.8047,2.7989,2.7963,2.7951,2.7925,2.7921,2.7857,2.7846,2.7807,2.7763,2.7752,2.7749,2.7735,2.7652,2.7653,2.7653,2.7699,2.7703,2.7706,0,0,0,0,0,2.8157,2.8144,2.8128,2.8115,2.8035,2.7989,2.7978,2.7935,2.7926,2.7916,2.7876,2.7848,2.7757,2.776,2.7747,2.7743,2.7652,2.7652,2.7653,2.7698,2.7702,2.7706,0,0,0,0,0,0,2.8206,2.8135,2.8116,2.8083,2.8043,2.7979,2.7966,2.7941,2.7901,2.7899,2.7845,2.7831,2.7798,2.7766,2.777,2.7718,2.7702,2.77,2.774,2.7744,2.7747,2.7756,2.7731,0,0,0,0,0,2.8213,2.8183,2.8122,2.8098,2.8079,2.8027,2.8005,2.7975,2.7931,2.7913,2.787,2.7827,2.7788,2.7764,2.7725,2.7694,2.768,2.7685,2.7688,2.7691,2.769,2.7672,2.7674,2.7654,2.7654,2.7654,0,0,2.8227,2.8184,2.8168,2.8107,2.8073,2.8042,2.8013,2.798,2.7957,2.7907,2.7869,2.7836,2.7784,2.775,2.7732,2.7722,2.7692,2.7692,2.7695,2.7691,2.7673,2.7675,2.7677,2.7654,2.7654,2.7654,0,0,2.8237,2.8202,2.8179,2.8146,2.8095,2.806,2.8055,2.7996,2.7973,2.7934,2.7897,2.7867,2.7802,2.7767,2.7741,2.774,2.7713,2.7729,2.7746,2.773,2.7731,2.7732,2.7733,2.7734,2.7728,2.7728,2.7728,0,2.826,2.8213,2.817,2.8141,2.8115,2.8072,2.8048,2.8017,2.7956,2.7939,2.7929,2.7848,2.781,2.7767,2.7768,2.7747,2.774,2.7736,2.7735,2.7736,2.7736,2.7736,2.7736,2.773,2.773,2.773,2.773,0,2.8245,2.8213,2.8201,2.8145,2.8118,2.8092,2.8044,2.8021,2.7995,2.7961,2.7922,2.7875,2.7827,2.7815,2.7787,2.7768,2.7764,2.7745,2.7728,2.7741,2.774,2.774,2.7734,2.7733,2.7732,2.7732,0,0,2.8281,2.8204,2.82,2.8175,2.8117,2.8091,2.8063,2.8018,2.8,2.7959,2.7934,2.7882,2.7865,2.7835,2.7803,2.7789,2.7793,2.7772,2.777,2.7778,2.777,2.7785,2.7786,2.7775,2.7774,2.7774,2.7775,0,2.8283,2.8232,2.8194,2.8157,2.8128,2.8087,2.8063,2.8024,2.7992,2.7961,2.7925,2.7889,2.7869,2.7851,2.7835,2.7796,2.779,2.7795,2.775,2.7749,2.7765,2.7785,2.78,2.7803,2.7774,2.7774,2.7774,0,2.8278,2.8242,2.8204,2.815,2.8136,2.8115,2.8072,2.8043,2.7999,2.7976,2.7945,2.7913,2.7881,2.7867,2.7822,2.7826,2.7806,2.7784,2.7783,2.7777,2.7763,2.7781,2.7803,2.7804,2.7773,2.7773,2.7773,0,2.8309,2.825,2.8221,2.82,2.8137,2.8124,2.8096,2.8052,2.8028,2.7989,2.7973,2.7931,2.7908,2.7875,2.7833,2.7826,2.7793,2.7775,2.7773,2.7774,2.7768,2.7769,2.7788,2.7754,2.7754,2.7754,2.7754,0,2.8315,2.8294,2.8234,2.8216,2.8191,2.8146,2.8122,2.8091,2.8052,2.8026,2.7987,2.7963,2.7909,2.7878,2.7844,2.7813,2.7802,2.7783,2.7774,2.7787,2.779,2.7773,2.7772,2.7754,2.7754,2.7754,2.7754,0,2.8346,2.8305,2.827,2.8215,2.82,2.8184,2.8136,2.8116,2.8083,2.8051,2.8041,2.7988,2.795,2.7905,2.7852,2.7829,2.7801,2.7788,2.7817,2.7812,2.7814,2.7814,2.7823,2.7822,2.7789,2.7789,2.7789,0,2.8353,2.8336,2.8279,2.8261,2.8235,2.8205,2.8181,2.8137,2.8114,2.8063,2.8049,2.8009,2.7975,2.7917,2.7873,2.7832,2.7818,2.7824,2.7811,2.7825,2.7819,2.7821,2.782,2.7827,2.7828,2.7828,2.7829,0,2.837,2.8351,2.832,2.8282,2.8256,2.8223,2.8188,2.8174,2.8123,2.8098,2.8061,2.8035,2.7982,2.7943,2.7898,2.7868,2.784,2.7833,2.7831,2.7843,2.7862,2.7853,2.7827,2.7833,2.7833,2.7832,2.7832,2.7832,2.8388,2.8372,2.8331,2.8298,2.8268,2.8237,2.8217,2.8182,2.8151,2.8106,2.8082,2.8045,2.8002,2.7938,2.791,2.788,2.787,2.7866,2.7865,2.7865,2.7869,2.7867,2.7871,2.7871,2.7871,2.7871,2.7871,0,2.8404,2.8376,2.8346,2.8301,2.8275,2.8253,2.8214,2.8194,2.8163,2.8126,2.8094,2.8051,2.8014,2.7968,2.7927,2.7912,2.7899,2.7903,2.7904,2.7898,2.788,2.7887,2.7915,2.7915,2.7915,2.7915,2.7915,2.7915,2.8409,2.8381,2.8358,2.8315,2.8287,2.8253,2.8232,2.8204,2.8174,2.813,2.8099,2.8071,2.803,2.7987,2.7951,2.7939,2.7926,2.7935,2.7918,2.7903,2.7899,2.7895,2.7901,2.7932,2.7932,2.7938,2.7938,2.7938]}]]